STARLINK-30248 (57610 NORAD) Tracking and Keplerian Element Data

This shows tracking and keplerian element data for the satellite.

Feedback or suggestion? Click here.




ElementValue
Catalog57610
NameSTARLINK-30248
Epoch Orbit2471
Epoch Day13.17347689
Epoch Year2024
RAAN35.2945
Inclination43.0019
Eccentricity6.75E-05
Argument of Perigee197.5167
Mean Anonmoly162.5652
Mean Motion15.02524364
Decay Rate8.527E-05
L11 57610U 23119J 24013.17347689 .00008527 00000+0 64575-3 0 9991
L22 57610 43.0019 35.2945 0000675 197.5167 162.5652 15.02524364 24713



Live tracking and technical data element details for STARLINK-30248 (NORAD 57610). STARLINK-30248 can be tracked NOW for your location showing map with azimuth and elevation plus other details from your city location.







IsCatalogInMostPopularTable: catalog: 57610, numindb: 26
Update: records affected: 1



GetName: 57610 STARLINK-30248

Hit Count: updated at: Thu, 29 Feb 2024 12:00:39 GMT